Hourly Weather Rudnyky

Today, 20 April, Tuesday

Time Temperature Precipitation Wind Pressure Humidity
00:00 +7°C° 0.1 mm 1 mps 731 mmHg 90%
01:00 +6°C° 0.1 mm 1 mps 731 mmHg 91%
02:00 +6°C° 0 mm 1 mps 731 mmHg 92%
03:00 +6°C° 0.1 mm 1 mps 731 mmHg 92%
04:00 +6°C° 0.1 mm 1 mps 731 mmHg 92%
05:00 +6°C° 0.1 mm 1 mps 731 mmHg 92%
06:00 +7°C° 0 mm 1 mps 731 mmHg 88%
07:00 +8°C° 0 mm 1 mps 731 mmHg 85%
08:00 +8°C° 0 mm 1 mps 731 mmHg 81%
09:00 +9°C° 0.4 mm 2 mps 731 mmHg 74%
10:00 +10°C° 0.4 mm 2 mps 731 mmHg 66%
11:00 +12°C° 0.4 mm 2 mps 731 mmHg 59%
12:00 +12°C° 0.3 mm 2 mps 730 mmHg 57%
13:00 +13°C° 0.3 mm 2 mps 730 mmHg 55%
14:00 +12°C° 0.3 mm 3 mps 730 mmHg 53%
15:00 +12°C° 0.1 mm 3 mps 730 mmHg 55%
16:00 +12°C° 0.1 mm 3 mps 730 mmHg 57%
17:00 +11°C° 0.1 mm 3 mps 729 mmHg 59%
18:00 +10°C° 0.1 mm 2 mps 730 mmHg 65%
19:00 +9°C° 0.1 mm 2 mps 730 mmHg 70%
20:00 +9°C° 0.1 mm 1 mps 730 mmHg 76%
21:00 +8°C° 0 mm 1 mps 730 mmHg 77%
22:00 +8°C° 0 mm 1 mps 730 mmHg 79%
23:00 +8°C° 0 mm 1 mps 730 mmHg 80%

Tomorrow, 21 April, Wednesday

Time Temperature Precipitation Wind Pressure Humidity
00:00 +7°C° 0 mm 1 mps 730 mmHg 82%
01:00 +6°C° 0 mm 2 mps 730 mmHg 83%
02:00 +5°C° 0 mm 2 mps 730 mmHg 85%
03:00 +5°C° 0 mm 2 mps 730 mmHg 87%
04:00 +5°C° 0 mm 2 mps 730 mmHg 88%
05:00 +4°C° 0 mm 2 mps 730 mmHg 90%
06:00 +5°C° 0 mm 2 mps 731 mmHg 86%
07:00 +7°C° 0 mm 3 mps 731 mmHg 82%
08:00 +8°C° 0 mm 3 mps 731 mmHg 78%
09:00 +9°C° 0.2 mm 3 mps 731 mmHg 72%
10:00 +11°C° 0.2 mm 4 mps 731 mmHg 66%
11:00 +12°C° 0.2 mm 4 mps 731 mmHg 60%
12:00 +13°C° 0.3 mm 4 mps 731 mmHg 56%
13:00 +13°C° 0.3 mm 4 mps 731 mmHg 53%
14:00 +14°C° 0.3 mm 4 mps 731 mmHg 50%
15:00 +14°C° 0.1 mm 4 mps 731 mmHg 53%
16:00 +13°C° 0.1 mm 4 mps 731 mmHg 56%
17:00 +13°C° 0.1 mm 4 mps 731 mmHg 58%
18:00 +12°C° 0.2 mm 4 mps 731 mmHg 65%
19:00 +10°C° 0.2 mm 3 mps 731 mmHg 72%
20:00 +9°C° 0.2 mm 2 mps 732 mmHg 79%
21:00 +8°C° 0 mm 2 mps 732 mmHg 80%
22:00 +8°C° 0 mm 2 mps 732 mmHg 81%
23:00 +7°C° 0 mm 2 mps 732 mmHg 82%

Day after tomorrow, 22 April, Thursday

Time Temperature Precipitation Wind Pressure Humidity
00:00 +7°C° 0 mm 2 mps 732 mmHg 81%
01:00 +7°C° 0 mm 2 mps 732 mmHg 81%
02:00 +7°C° 0 mm 2 mps 732 mmHg 80%
03:00 +7°C° 0 mm 3 mps 732 mmHg 82%
04:00 +7°C° 0 mm 3 mps 732 mmHg 83%
05:00 +7°C° 0 mm 3 mps 732 mmHg 84%
06:00 +8°C° 0 mm 3 mps 732 mmHg 82%
07:00 +9°C° 0 mm 3 mps 732 mmHg 80%
08:00 +10°C° 0 mm 3 mps 733 mmHg 79%
09:00 +11°C° 0.2 mm 4 mps 733 mmHg 75%
10:00 +12°C° 0.2 mm 5 mps 733 mmHg 71%
11:00 +13°C° 0.2 mm 5 mps 733 mmHg 67%
12:00 +13°C° 0.4 mm 5 mps 732 mmHg 66%
13:00 +13°C° 0.4 mm 4 mps 732 mmHg 64%
14:00 +13°C° 0.4 mm 3 mps 732 mmHg 63%
15:00 +13°C° 0.2 mm 4 mps 732 mmHg 63%
16:00 +14°C° 0.2 mm 5 mps 731 mmHg 63%
17:00 +14°C° 0.2 mm 5 mps 731 mmHg 63%
18:00 +10°C° 0.5 mm 5 mps 732 mmHg 72%
19:00 +7°C° 0.5 mm 5 mps 733 mmHg 82%
20:00 +5°C° 0.5 mm 5 mps 733 mmHg 92%
21:00 +3°C° 0.3 mm 5 mps 733 mmHg 92%
22:00 +4°C° 0.3 mm 4 mps 734 mmHg 92%
23:00 +4°C° 0.3 mm 4 mps 734 mmHg 92%

23 April, Friday

Time Temperature Precipitation Wind Pressure Humidity
00:00 +3°C° 0.1 mm 3 mps 734 mmHg 90%
01:00 +3°C° 0.1 mm 3 mps 734 mmHg 89%
02:00 +3°C° 0.1 mm 3 mps 734 mmHg 87%
03:00 +3°C° 0 mm 3 mps 734 mmHg 89%
04:00 +2°C° 0 mm 3 mps 734 mmHg 90%
05:00 +2°C° 0 mm 3 mps 734 mmHg 92%
06:00 +1°C° 0 mm 4 mps 735 mmHg 86%
07:00 +2°C° 0 mm 5 mps 735 mmHg 79%
08:00 +2°C° 0 mm 5 mps 735 mmHg 73%
09:00 +3°C° 0 mm 6 mps 736 mmHg 68%
10:00 +4°C° 0 mm 6 mps 736 mmHg 62%
11:00 +5°C° 0 mm 6 mps 736 mmHg 57%
12:00 +5°C° 0 mm 6 mps 736 mmHg 52%
13:00 +7°C° 0 mm 6 mps 736 mmHg 47%
14:00 +8°C° 0 mm 7 mps 735 mmHg 41%
15:00 +8°C° 0 mm 6 mps 735 mmHg 43%
16:00 +8°C° 0 mm 5 mps 735 mmHg 45%
17:00 +7°C° 0 mm 5 mps 735 mmHg 47%
18:00 +6°C° 0 mm 4 mps 735 mmHg 54%
19:00 +7°C° 0 mm 3 mps 735 mmHg 60%
20:00 +5°C° 0 mm 3 mps 735 mmHg 67%
21:00 +4°C° 1.1 mm 3 mps 736 mmHg 76%
22:00 +3°C° 1.1 mm 4 mps 736 mmHg 85%
23:00 +1°C° 1.1 mm 5 mps 736 mmHg 94%

24 April, Saturday

Time Temperature Precipitation Wind Pressure Humidity
00:00 0°C° 0 mm 5 mps 736 mmHg 91%
01:00 -1°C° 0 mm 6 mps 736 mmHg 89%
02:00 -2°C° 0 mm 6 mps 737 mmHg 86%
03:00 -1°C° 0 mm 5 mps 737 mmHg 89%
04:00 -2°C° 0 mm 5 mps 737 mmHg 91%
05:00 -2°C° 0 mm 4 mps 737 mmHg 94%
06:00 -1°C° 0 mm 5 mps 737 mmHg 88%
07:00 0°C° 0 mm 5 mps 738 mmHg 83%
08:00 +1°C° 0 mm 6 mps 738 mmHg 78%
09:00 +2°C° 0 mm 6 mps 738 mmHg 69%
10:00 +3°C° 0 mm 6 mps 738 mmHg 60%
11:00 +4°C° 0 mm 6 mps 738 mmHg 51%
12:00 +5°C° 0 mm 6 mps 738 mmHg 48%
13:00 +7°C° 0 mm 6 mps 737 mmHg 45%
14:00 +7°C° 0 mm 6 mps 737 mmHg 42%
15:00 +7°C° 0 mm 5 mps 737 mmHg 44%
16:00 +7°C° 0 mm 5 mps 736 mmHg 46%
17:00 +8°C° 0 mm 4 mps 736 mmHg 49%
18:00 +8°C° 0 mm 3 mps 736 mmHg 53%
19:00 +7°C° 0 mm 2 mps 736 mmHg 57%
20:00 +7°C° 0 mm 1 mps 736 mmHg 62%
21:00 +5°C° 0 mm 2 mps 736 mmHg 63%
22:00 +5°C° 0 mm 2 mps 736 mmHg 64%
23:00 +5°C° 0 mm 2 mps 736 mmHg 66%

25 April, Sunday

Time Temperature Precipitation Wind Pressure Humidity
00:00 +3°C° 0.1 mm 3 mps 736 mmHg 73%
01:00 +3°C° 0.1 mm 3 mps 735 mmHg 81%
02:00 +3°C° 0.1 mm 3 mps 735 mmHg 88%
03:00 +2°C° 0.4 mm 3 mps 735 mmHg 90%
04:00 +2°C° 0.4 mm 3 mps 735 mmHg 92%
05:00 +2°C° 0.4 mm 3 mps 735 mmHg 94%
06:00 +2°C° 0.1 mm 3 mps 735 mmHg 89%
07:00 +3°C° 0.1 mm 3 mps 735 mmHg 85%
08:00 +3°C° 0.1 mm 3 mps 735 mmHg 80%
09:00 +4°C° 0 mm 3 mps 735 mmHg 72%
10:00 +6°C° 0 mm 2 mps 734 mmHg 65%
11:00 +7°C° 0 mm 2 mps 734 mmHg 57%
12:00 +7°C° 0 mm 2 mps 734 mmHg 55%
13:00 +9°C° 0 mm 1 mps 734 mmHg 53%
14:00 +9°C° 0 mm 1 mps 733 mmHg 51%
15:00 +7°C° 0.2 mm 2 mps 733 mmHg 61%
16:00 +5°C° 0.2 mm 4 mps 733 mmHg 71%
17:00 +3°C° 0.2 mm 5 mps 733 mmHg 81%
18:00 +4°C° 0.1 mm 4 mps 733 mmHg 84%
19:00 +3°C° 0.1 mm 3 mps 734 mmHg 86%
20:00 +3°C° 0.1 mm 2 mps 734 mmHg 89%
21:00 +2°C° 0 mm 2 mps 734 mmHg 89%
22:00 +2°C° 0 mm 2 mps 734 mmHg 89%
23:00 +1°C° 0 mm 2 mps 734 mmHg 88%
Show more